1497358800.0,28963,20.44,73900.5,16.19,-26.71,-26.07,0,*45
1497358801.24,28964,20.44,73900.8,16.19,-25.39,-25.03,0,*4A
1497358802.52,28965,20.44,73896.8,16.21,-25.81,-25.29,0,*4B
1497358803.81,28966,20.44,73902.0,16.21,-25.29,-24.71,0,*46
1497358805.02,28967,20.44,73902.8,16.27,-25.19,-24.77,0,*44
1497358806.26,28968,20.44,73906.8,16.23,-27.45,-27.29,0,*4C
1497358807.5,28969,20.44,73902.8,16.27,-26.77,-26.23,0,*42
1497358808.76,28970,20.44,73904.3,16.23,-26.77,-26.55,0,*4F
1497358810.02,28971,20.44,73906.8,16.23,-26.55,-26.13,0,*4C
1497358811.23,28972,20.44,73904.8,16.27,-26.49,-26.07,0,*43
1497358812.44,28973,20.44,73906.3,16.27,-27.93,-27.77,0,*42
1497358813.66,28974,20.44,73906.5,16.27,-25.91,-25.61,0,*40
1497358814.9,28975,20.44,73906.5,16.27,-25.03,-24.77,0,*4C
1497358816.13,28976,20.44,73908.8,16.29,-24.93,-24.61,0,*4E
1497358817.39,28977,20.44,73908.3,16.29,-24.11,-23.79,0,*4B
1497358818.6,28978,20.44,73910.8,16.31,-24.47,-24.47,0,*44
1497358819.88,28979,20.44,73908.3,16.33,-23.69,-23.69,0,*47
1497358821.15,28980,20.44,73912.3,16.37,-23.29,-23.29,0,*45
1497358822.42,28981,20.44,73908.5,16.41,-22.41,-22.47,0,*43
1497358823.67,28982,20.44,73910.5,16.43,-22.21,-22.21,0,*44
1497358824.91,28983,20.44,73910.0,16.45,-22.17,-22.41,0,*40
1497358826.15,28984,20.44,73908.8,16.49,-24.21,-24.57,0,*49
1497358827.37,28985,20.44,73912.5,16.49,-23.23,-23.59,0,*44
1497358828.6,28986,20.44,73910.5,16.53,-22.73,-23.09,0,*4D
1497358829.89,28987,20.44,73914.3,16.51,-24.15,-24.67,0,*47
1497358831.13,28988,20.44,73912.3,16.53,-26.77,-27.29,0,*45
1497358832.39,28989,20.44,73914.3,16.51,-28.37,-28.91,0,*40
1497358833.66,28990,20.44,73912.8,16.51,-29.39,-29.61,0,*49
1497358834.92,28991,20.44,73910.5,16.47,-27.03,-27.23,0,*40
1497358836.17,28992,20.44,73908.8,16.49,-26.55,-26.71,0,*49
1497358837.42,28993,20.44,73908.3,16.47,-26.23,-26.17,0,*47
1497358838.66,28994,20.44,73910.8,16.47,-25.61,-25.61,0,*47
1497358839.96,28995,20.44,73908.8,16.47,-26.81,-26.97,0,*41
1497358841.21,28996,20.44,73910.8,16.47,-29.23,-29.29,0,*4F
1497358842.44,28997,20.44,73910.0,16.45,-30.23,-30.17,0,*41
1497358843.71,28998,20.5,73910.0,16.43,-31.11,-31.11,0,*4F
1497358844.94,28999,20.44,73904.0,16.39,-31.39,-31.33,0,*49
1497358846.23,29000,20.44,73906.8,16.33,-29.35,-29.17,0,*41
1497358847.5,29001,20.44,73906.5,16.33,-28.63,-28.31,0,*47
1497358848.74,29002,20.44,73904.5,16.31,-28.31,-28.05,0,*46
1497358850.0,29003,20.44,73904.5,16.29,-29.01,-28.69,0,*46
1497358851.25,29004,20.44,73906.5,16.29,-29.07,-28.79,0,*46
1497358852.51,29005,20.44,73906.8,16.29,-29.79,-29.29,0,*4A
1497358853.77,29006,20.44,73902.8,16.29,-27.71,-27.23,0,*4B
1497358855.01,29007,20.44,73904.8,16.27,-28.79,-28.53,0,*4B
1497358856.24,29008,20.44,73904.3,16.27,-27.93,-27.39,0,*4C
1497358857.46,29009,20.44,73904.8,16.27,-27.93,-27.67,0,*46
1497358858.7,29010,20.44,73902.8,16.27,-28.21,-27.77,0,*49
1497358859.91,29011,20.44,73906.3,16.23,-28.15,-27.55,0,*4B
1497358861.14,29012,20.44,73904.5,16.23,-28.09,-27.77,0,*45
1497358862.37,29013,20.44,73904.8,16.23,-29.61,-29.17,0,*43
1497358863.63,29014,20.44,73908.5,16.23,-27.99,-27.39,0,*4F
1497358864.87,29015,20.44,73906.5,16.19,-26.71,-26.23,0,*4A
1497358866.13,29016,20.44,73908.5,16.21,-29.83,-29.35,0,*48
1497358867.4,29017,20.44,73906.0,16.21,-29.89,-29.67,0,*44
1497358868.63,29018,20.44,73904.0,16.19,-30.05,-29.61,0,*4A
1497358869.86,29019,20.44,73906.8,16.17,-30.11,-29.61,0,*40
1497358871.06,29020,20.5,73906.0,16.15,-30.23,-29.79,0,*40
1497358872.28,29021,20.44,73904.0,16.11,-30.95,-30.23,0,*4F
1497358873.54,29022,20.5,73904.5,16.11,-30.73,-30.17,0,*43
1497358874.74,29023,20.5,73900.3,16.11,-31.79,-31.29,0,*45
1497358876.0,29024,20.5,73900.3,16.05,-32.07,-31.45,0,*47
1497358877.23,29025,20.44,73898.3,16.03,-32.69,-32.29,0,*41
1497358878.48,29026,20.44,73898.3,15.97,-33.73,-33.15,0,*48
1497358879.73,29027,20.44,73896.5,15.95,-33.73,-33.31,0,*4D
1497358880.98,29028,20.44,73896.3,15.89,-31.17,-30.55,0,*4E
1497358882.2,29029,20.44,73896.5,15.89,-31.67,-31.29,0,*42
1497358883.44,29030,20.5,73900.8,15.83,-31.79,-31.23,0,*45
1497358884.66,29031,20.44,73896.3,15.83,-30.23,-29.51,0,*46
1497358885.87,29032,20.44,73892.3,15.83,-29.45,-28.85,0,*45
1497358887.1,29033,20.44,73894.0,15.83,-28.97,-28.43,0,*40
1497358888.29,29034,20.44,73896.3,15.83,-30.23,-29.57,0,*45
1497358889.52,29035,20.44,73894.0,15.81,-28.31,-27.67,0,*41
1497358890.76,29036,20.44,73892.3,15.81,-31.45,-30.67,0,*4F
1497358891.98,29037,20.44,73892.0,15.79,-30.45,-29.57,0,*43
1497358893.25,29038,20.44,73894.8,15.81,-27.23,-26.29,0,*4B
1497358894.51,29039,20.5,73896.0,15.81,-27.61,-26.65,0,*44
1497358895.76,29040,20.44,73896.0,15.79,-27.99,-27.03,0,*4B
1497358897.04,29041,20.44,73896.5,15.79,-26.13,-25.03,0,*4B
1497358898.31,29042,20.44,73896.3,15.85,-27.23,-26.55,0,*49
1497358899.51,29043,20.5,73894.8,15.83,-29.45,-28.69,0,*41
1497358900.71,29044,20.44,73896.3,15.83,-30.33,-29.57,0,*43
1497358901.98,29045,20.44,73896.5,15.81,-30.55,-29.73,0,*46
1497358903.24,29046,20.44,73892.3,15.79,-29.51,-28.69,0,*44
1497358904.47,29047,20.44,73894.5,15.79,-30.55,-29.79,0,*49
1497358905.74,29048,20.44,73894.3,15.75,-30.01,-29.29,0,*4E
1497358906.98,29049,20.44,73894.0,15.75,-29.45,-28.79,0,*43
1497358908.21,29050,20.44,73894.0,15.75,-29.95,-29.23,0,*48
1497358909.45,29051,20.5,73896.0,15.73,-29.73,-29.01,0,*47
1497358910.7,29052,20.44,73894.8,15.73,-30.05,-29.51,0,*48
1497358911.95,29053,20.5,73892.8,15.71,-30.27,-29.73,0,*4B
1497358913.21,29054,20.5,73894.3,15.69,-31.61,-30.89,0,*4B
1497358914.47,29055,20.44,73892.3,15.67,-30.67,-30.01,0,*43
1497358915.72,29056,20.44,73894.0,15.63,-31.01,-30.39,0,*4E
1497358916.94,29057,20.44,73890.0,15.61,-33.37,-32.97,0,*4C
1497358918.2,29058,20.44,73892.8,15.57,-32.07,-31.51,0,*4D
1497358919.43,29059,20.44,73894.5,15.53,-33.95,-33.49,0,*49
1497358920.65,29060,20.44,73890.8,15.49,-33.61,-33.21,0,*4D
1497358921.86,29061,20.5,73898.8,15.47,-33.67,-33.21,0,*44
1497358923.06,29062,20.5,73896.5,15.43,-33.37,-33.03,0,*46
1497358924.27,29063,20.5,73898.8,15.39,-33.37,-32.91,0,*40
1497358925.5,29064,20.5,73894.8,15.35,-32.79,-32.35,0,*4E
1497358926.75,29065,20.5,73898.8,15.35,-32.19,-31.57,0,*4E
1497358927.97,29066,20.44,73894.3,15.31,-32.23,-31.57,0,*40
1497358929.24,29067,20.44,73898.8,15.29,-31.45,-30.89,0,*49
1497358930.44,29068,20.5,73898.5,15.27,-31.01,-30.27,0,*4C
1497358931.7,29069,20.5,73892.3,15.25,-29.61,-28.91,0,*44
1497358932.92,29070,20.5,73892.5,15.25,-29.79,-29.23,0,*4D
1497358934.17,29071,20.5,73888.5,15.27,-30.05,-29.35,0,*4A
1497358935.4,29072,20.5,73892.3,15.25,-29.79,-29.07,0,*49
1497358936.65,29073,20.44,73888.3,15.27,-30.51,-29.73,0,*4B
1497358937.88,29074,20.44,73890.3,15.25,-29.67,-28.97,0,*48
1497358939.11,29075,20.5,73890.5,15.23,-29.23,-28.63,0,*44
1497358940.37,29076,20.44,73890.8,15.25,-29.13,-28.37,0,*43
1497358941.59,29077,20.5,73892.0,15.27,-27.35,-26.65,0,*43
1497358942.88,29078,20.5,73894.0,15.25,-27.23,-26.29,0,*41
1497358944.13,29079,20.5,73896.3,15.29,-26.97,-26.07,0,*4E
1497358945.42,29080,20.5,73892.0,15.29,-26.33,-25.45,0,*43
1497358946.64,29081,20.5,73894.5,15.31,-25.75,-24.97,0,*44
1497358947.87,29082,20.5,73894.0,15.33,-25.87,-25.09,0,*4E
1497358949.11,29083,20.5,73892.3,15.35,-25.09,-24.25,0,*40
1497358950.38,29084,20.44,73894.8,15.37,-25.71,-24.83,0,*46
1497358951.61,29085,20.44,73894.5,15.43,-25.45,-24.61,0,*4F
1497358952.83,29086,20.5,73894.3,15.47,-25.23,-24.41,0,*4A
1497358954.08,29087,20.5,73894.8,15.49,-26.13,-25.29,0,*4A
1497358955.31,29088,20.5,73894.5,15.49,-25.49,-24.67,0,*42
1497358956.56,29089,20.44,73894.0,15.51,-26.61,-25.81,0,*4A
1497358957.79,29090,20.5,73896.0,15.49,-26.61,-25.81,0,*4B
1497358959.04,29091,20.5,73892.8,15.51,-25.29,-24.47,0,*47
1497358960.3,29092,20.5,73894.5,15.51,-25.81,-25.13,0,*46
1497358961.58,29093,20.5,73894.5,15.55,-26.55,-25.55,0,*4B
1497358962.82,29094,20.5,73898.8,15.57,-26.33,-25.65,0,*4D
1497358964.06,29095,20.5,73896.8,15.57,-25.49,-24.71,0,*46
1497358965.3,29096,20.5,73898.0,15.57,-26.39,-25.71,0,*40
1497358966.53,29097,20.44,73894.5,15.59,-26.03,-25.35,0,*46
1497358967.76,29098,20.5,73898.5,15.59,-25.87,-25.19,0,*48
1497358969.04,29099,20.5,73898.5,15.59,-26.29,-25.45,0,*47
1497358970.33,29100,20.5,73896.3,15.59,-25.97,-25.29,0,*4A
1497358971.52,29101,20.5,73898.0,15.61,-25.09,-24.31,0,*4F
1497358972.8,29102,20.5,73898.0,15.63,-24.15,-23.19,0,*4F
1497358974.06,29103,20.5,73896.5,15.67,-24.87,-24.61,0,*49
1497358975.31,29104,20.5,73900.0,15.69,-26.97,-26.33,0,*46
1497358976.52,29105,20.44,73896.8,15.69,-26.87,-26.39,0,*4C
1497358977.77,29106,20.5,73896.5,15.67,-26.77,-26.23,0,*45
1497358979.05,29107,20.5,73896.5,15.67,-26.55,-25.75,0,*44
1497358980.31,29108,20.5,73898.8,15.67,-27.23,-26.39,0,*40
1497358981.57,29109,20.5,73896.5,15.67,-26.55,-26.03,0,*48
1497358982.8,29110,20.5,73894.8,15.67,-25.49,-24.77,0,*4F
1497358984.08,29111,20.5,73898.8,15.67,-24.87,-24.21,0,*4E
1497358985.29,29112,20.5,73898.8,15.69,-24.35,-23.59,0,*42
1497358986.51,29113,20.5,73898.5,15.73,-24.35,-23.69,0,*4B
1497358987.74,29114,20.5,73898.3,15.73,-24.61,-23.85,0,*4F
1497358988.99,29115,20.5,73894.8,15.73,-23.85,-23.03,0,*4D
1497358990.21,29116,20.5,73894.0,15.77,-23.89,-23.23,0,*44
1497358991.49,29117,20.5,73898.0,15.79,-23.53,-22.77,0,*4C
1497358992.74,29118,20.5,73894.3,15.81,-23.65,-22.83,0,*4A
1497358993.97,29119,20.5,73898.3,15.83,-24.21,-23.79,0,*4A
1497358995.22,29120,20.5,73892.3,15.83,-24.83,-24.15,0,*45
1497358996.49,29121,20.5,73894.5,15.85,-24.11,-23.49,0,*47
1497358997.72,29122,20.5,73894.8,15.85,-23.89,-23.09,0,*46
1497358998.98,29123,20.5,73896.5,15.85,-24.05,-23.19,0,*45
1497359000.21,29124,20.5,73896.5,15.91,-23.75,-23.03,0,*4C
1497359001.46,29125,20.5,73898.0,15.91,-23.95,-23.23,0,*41
1497359002.68,29126,20.5,73898.8,15.95,-23.33,-22.53,0,*4C
1497359003.91,29127,20.5,73894.3,15.95,-22.67,-21.87,0,*47
1497359005.16,29128,20.5,73896.3,15.97,-23.19,-22.57,0,*4C
1497359006.41,29129,20.5,73898.8,16.01,-23.33,-22.57,0,*49
1497359007.63,29130,20.5,73898.3,16.01,-22.83,-22.27,0,*4C
1497359008.83,29131,20.5,73894.8,16.03,-22.93,-22.37,0,*4F
1497359010.05,29132,20.5,73898.3,16.03,-22.21,-21.47,0,*41
1497359011.32,29133,20.5,73900.3,16.05,-23.85,-23.33,0,*48
1497359012.57,29134,20.5,73898.3,16.07,-23.95,-23.29,0,*47
1497359013.79,29135,20.5,73900.8,16.11,-23.23,-22.53,0,*40
1497359015.02,29136,20.5,73896.3,16.07,-22.83,-22.17,0,*4F
1497359016.28,29137,20.5,73898.8,16.13,-22.73,-22.11,0,*42
1497359017.56,29138,20.5,73900.5,16.13,-23.49,-22.77,0,*45
1497359018.82,29139,20.5,73904.0,16.17,-23.29,-22.67,0,*47
1497359020.06,29140,20.5,73900.3,16.17,-23.43,-22.87,0,*4B
1497359021.32,29141,20.5,73900.3,16.17,-23.33,-22.63,0,*47
1497359022.54,29142,20.5,73902.5,16.19,-23.75,-23.13,0,*4E
1497359023.78,29143,20.5,73902.3,16.19,-23.95,-23.39,0,*49
1497359025.04,29144,20.5,73902.5,16.19,-23.95,-23.29,0,*4F
1497359026.3,29145,20.5,73900.5,16.21,-23.59,-23.03,0,*4D
1497359027.56,29146,20.44,73896.0,16.21,-23.23,-22.63,0,*44
1497359028.77,29147,20.5,73900.3,16.23,-22.67,-22.07,0,*44
1497359030.0,29148,20.5,73900.8,16.27,-22.17,-21.73,0,*48
1497359031.22,29149,20.5,73902.3,16.27,-22.11,-21.47,0,*48
1497359032.42,29150,20.5,73906.8,16.31,-22.63,-22.07,0,*45
1497359033.65,29151,20.5,73902.5,16.31,-24.87,-24.35,0,*4F
1497359034.91,29152,20.5,73904.0,16.29,-24.41,-23.89,0,*4F
1497359036.18,29153,20.5,73906.8,16.29,-24.41,-23.89,0,*4E
1497359037.44,29154,20.5,73906.8,16.33,-23.53,-23.13,0,*45
1497359038.7,29155,20.5,73906.0,16.29,-23.23,-22.67,0,*4A
1497359039.99,29156,20.5,73904.5,16.33,-23.53,-23.03,0,*46
1497359041.25,29157,20.5,73906.3,16.33,-23.49,-22.97,0,*40
1497359042.54,29158,20.5,73900.8,16.33,-23.19,-22.73,0,*40
1497359043.78,29159,20.5,73906.8,16.37,-22.93,-22.63,0,*47
1497359045.06,29160,20.5,73906.5,16.37,-24.11,-23.65,0,*46
1497359046.34,29161,20.5,73904.5,16.37,-23.65,-23.23,0,*41
1497359047.6,29162,20.5,73902.8,16.37,-23.89,-23.49,0,*4C
1497359048.86,29163,20.5,73906.8,16.37,-23.75,-23.65,0,*40
1497359050.1,29164,20.5,73904.8,16.37,-23.09,-23.09,0,*46
1497359051.34,29165,20.5,73902.8,16.37,-22.53,-22.93,0,*4B
1497359052.59,29166,20.5,73904.3,16.41,-23.29,-24.05,0,*4C
1497359053.8,29167,20.5,73908.3,16.39,-22.67,-23.13,0,*49
1497359055.03,29168,20.5,73904.5,16.39,-22.93,-23.29,0,*44
1497359056.29,29169,20.5,73904.5,16.41,-22.27,-22.77,0,*4F
1497359057.53,29170,20.5,73910.3,16.43,-21.97,-22.27,0,*48
1497359058.77,29171,20.5,73904.0,16.43,-22.93,-23.23,0,*4B
1497359059.98,29172,20.5,73910.8,16.43,-23.75,-23.89,0,*41
1497359061.21,29173,20.5,73910.3,16.43,-22.83,-23.03,0,*4A
1497359062.47,29174,20.5,73906.3,16.43,-22.73,-23.03,0,*42
1497359063.71,29175,20.5,73904.8,16.45,-22.83,-23.33,0,*49
1497359064.94,29176,20.5,73906.8,16.45,-22.27,-22.73,0,*41
1497359066.17,29177,20.5,73908.5,16.45,-23.95,-24.31,0,*48
1497359067.44,29178,20.5,73908.8,16.47,-22.37,-22.77,0,*48
1497359068.72,29179,20.5,73908.8,16.47,-21.67,-21.83,0,*47
1497359069.99,29180,20.5,73912.5,16.51,-21.93,-22.31,0,*47
1497359071.27,29181,20.5,73908.0,16.51,-22.73,-23.29,0,*43
1497359072.47,29182,20.5,73906.8,16.53,-22.07,-22.37,0,*4F
1497359073.69,29183,20.5,73910.3,16.53,-22.11,-22.73,0,*49
1497359074.9,29184,20.5,73914.8,16.53,-22.27,-22.97,0,*41
1497359076.11,29185,20.5,73908.5,16.53,-22.37,-22.97,0,*41
1497359077.34,29186,20.5,73912.3,16.55,-21.73,-22.37,0,*4D
1497359078.62,29187,20.5,73908.5,16.59,-22.47,-23.33,0,*41
1497359079.88,29188,20.5,73910.5,16.59,-21.27,-22.03,0,*49
1497359081.14,29189,20.5,73910.0,16.63,-20.59,-21.53,0,*4F
1497359082.43,29190,20.5,73910.5,16.63,-21.53,-22.77,0,*49
1497359083.7,29191,20.5,73910.3,16.63,-21.97,-23.23,0,*40
1497359084.97,29192,20.5,73910.5,16.63,-21.67,-22.93,0,*46
1497359086.23,29193,20.5,73908.3,16.67,-20.93,-22.17,0,*45
1497359087.52,29194,20.5,73912.0,16.67,-21.67,-23.03,0,*4C
1497359088.77,29195,20.5,73912.8,16.69,-21.33,-22.77,0,*40
1497359089.97,29196,20.5,73910.5,16.69,-22.11,-23.75,0,*43
1497359091.25,29197,20.5,73912.3,16.71,-22.31,-24.11,0,*4C
1497359092.48,29198,20.5,73912.5,16.69,-23.09,-24.71,0,*46
1497359093.77,29199,20.5,73910.3,16.67,-21.67,-23.29,0,*49
1497359094.97,29200,20.5,73908.8,16.69,-20.69,-22.63,0,*44
1497359096.19,29201,20.5,73912.8,16.69,-21.63,-23.53,0,*4C
1497359097.44,29202,20.5,73914.3,16.69,-21.67,-23.53,0,*4B
1497359098.7,29203,20.5,73912.0,16.71,-21.09,-22.77,0,*4C
1497359099.95,29204,20.5,73912.3,16.71,-22.47,-24.35,0,*42
1497359101.15,29205,20.5,73912.0,16.69,-22.27,-23.89,0,*4C
1497359102.41,29206,20.5,73912.8,16.71,-21.17,-22.77,0,*46
1497359103.63,29207,20.5,73912.5,16.73,-20.83,-22.41,0,*4C
1497359104.89,29208,20.5,73914.5,16.75,-21.77,-23.49,0,*46
1497359106.17,29209,20.5,73912.0,16.75,-21.27,-23.03,0,*4C
1497359107.42,29210,20.5,73916.0,16.81,-21.63,-23.29,0,*47
1497359108.71,29211,20.5,73912.8,16.77,-22.21,-23.85,0,*4C
1497359109.99,29212,20.5,73916.3,16.77,-22.21,-23.85,0,*4F
1497359111.27,29213,20.5,73914.0,16.77,-21.27,-22.73,0,*43
1497359112.5,29214,20.5,73912.3,16.83,-20.99,-22.57,0,*4D
1497359113.74,29215,20.5,73912.0,16.81,-21.63,-23.09,0,*40
1497359114.97,29216,20.5,73918.0,16.83,-21.93,-23.33,0,*47
1497359116.2,29217,20.5,73914.0,16.85,-21.13,-22.53,0,*4F
1497359117.41,29218,20.5,73912.0,16.87,-21.13,-22.57,0,*46
1497359118.64,29219,20.5,73918.3,16.87,-20.83,-22.07,0,*4A
1497359119.89,29220,20.5,73914.5,16.89,-20.43,-21.57,0,*44
1497359121.1,29221,20.5,73914.3,16.91,-21.17,-22.53,0,*4B
1497359122.36,29222,20.5,73916.0,16.93,-21.93,-23.23,0,*40
1497359123.6,29223,20.5,73912.3,16.91,-20.93,-22.17,0,*44
1497359124.86,29224,20.5,73914.5,16.95,-20.15,-21.23,0,*4D
1497359126.11,29225,20.5,73916.5,16.97,-20.79,-22.03,0,*45
1497359127.36,29226,20.5,73912.5,16.97,-22.07,-23.19,0,*47
1497359128.62,29227,20.5,73918.0,16.99,-22.47,-23.65,0,*47
1497359129.87,29228,20.5,73914.5,16.97,-22.41,-23.65,0,*40
1497359131.07,29229,20.5,73912.5,16.99,-22.03,-22.97,0,*45
1497359132.3,29230,20.5,73916.8,16.99,-22.83,-23.95,0,*46
1497359133.54,29231,20.5,73912.8,17.01,-22.87,-23.85,0,*42
1497359134.76,29232,20.5,73914.5,17.01,-22.41,-23.39,0,*4C
1497359136.01,29233,20.5,73912.5,17.01,-21.47,-22.31,0,*41
1497359137.23,29234,20.5,73914.3,17.01,-21.39,-22.41,0,*48
1497359138.45,29235,20.5,73916.0,17.01,-22.87,-23.75,0,*49
1497359139.71,29236,20.5,73918.8,17.05,-22.21,-22.93,0,*4B
1497359140.93,29237,20.5,73912.3,17.07,-22.03,-22.73,0,*46
1497359142.13,29238,20.5,73914.8,17.07,-23.13,-23.79,0,*42
1497359143.35,29239,20.5,73912.5,17.05,-22.93,-23.59,0,*4A
1497359144.56,29240,20.5,73918.3,17.09,-22.83,-23.43,0,*42
1497359145.77,29241,20.5,73916.3,17.09,-22.97,-23.75,0,*43
1497359146.98,29242,20.5,73912.5,17.09,-23.09,-23.59,0,*48
1497359148.19,29243,20.5,73912.3,17.09,-23.09,-23.59,0,*49
1497359149.42,29244,20.5,73918.5,17.09,-23.33,-23.75,0,*49
1497359150.63,29245,20.5,73914.8,17.09,-22.97,-23.43,0,*42
1497359151.86,29246,20.5,73912.3,17.09,-23.23,-23.59,0,*44
1497359153.09,29247,20.5,73918.8,17.09,-22.97,-23.23,0,*46
1497359154.35,29248,20.5,73912.3,17.11,-22.47,-22.67,0,*4C
1497359155.57,29249,20.5,73912.0,17.13,-23.39,-23.53,0,*41
1497359156.81,29250,20.5,73912.3,17.13,-22.77,-22.93,0,*4F
1497359158.04,29251,20.5,73912.8,17.15,-22.67,-22.83,0,*48
1497359159.3,29252,20.5,73914.3,17.15,-22.73,-22.87,0,*4A
1497359160.58,29253,20.5,73914.3,17.15,-23.23,-23.23,0,*40
1497359161.83,29254,20.5,73910.0,17.17,-23.65,-23.65,0,*45
1497359163.08,29255,20.5,73912.5,17.15,-23.49,-23.39,0,*41
1497359164.3,29256,20.5,73916.5,17.17,-23.39,-23.33,0,*4D
1497359165.56,29257,20.5,73914.8,17.19,-22.37,-22.31,0,*4E
1497359166.8,29258,20.5,73912.8,17.19,-22.07,-21.97,0,*4D
1497359168.03,29259,20.5,73914.0,17.21,-22.41,-22.17,0,*4E
1497359169.27,29260,20.5,73916.3,17.23,-22.93,-22.93,0,*45
1497359170.52,29261,20.5,73914.0,17.27,-23.39,-23.23,0,*4B
1497359171.77,29262,20.5,73914.5,17.27,-22.67,-22.73,0,*46
1497359173.05,29263,20.5,73918.3,17.27,-22.21,-22.21,0,*42
1497359174.3,29264,20.5,73918.5,17.29,-22.31,-22.21,0,*4A
1497359175.6,29265,20.5,73914.0,17.31,-21.53,-21.23,0,*44
1497359176.89,29266,20.5,73914.5,17.31,-21.57,-21.23,0,*43
1497359178.11,29267,20.5,73914.8,17.35,-22.07,-21.93,0,*4B
1497359179.34,29268,20.5,73914.5,17.37,-22.47,-22.37,0,*4F
1497359180.6,29269,20.5,73916.8,17.39,-22.37,-22.21,0,*40
1497359181.83,29270,20.5,73914.3,17.41,-23.29,-23.09,0,*42
1497359183.08,29271,20.5,73914.0,17.39,-23.99,-23.89,0,*4F
1497359184.32,29272,20.5,73916.0,17.41,-24.71,-24.57,0,*46
1497359185.57,29273,20.5,73914.3,17.39,-24.97,-24.71,0,*44
1497359186.8,29274,20.5,73914.8,17.41,-25.09,-24.83,0,*47
1497359188.03,29275,20.5,73914.0,17.39,-24.77,-24.61,0,*4D
1497359189.31,29276,20.5,73912.8,17.39,-24.87,-24.41,0,*43
1497359190.56,29277,20.5,73910.5,17.37,-23.65,-23.29,0,*4E
1497359191.77,29278,20.5,73908.5,17.41,-23.13,-22.63,0,*4E
1497359192.98,29279,20.5,73914.5,17.41,-23.09,-22.63,0,*44
1497359194.2,29280,20.5,73914.5,17.43,-25.23,-25.19,0,*44
1497359195.44,29281,20.5,73914.0,17.41,-28.53,-28.25,0,*4F
1497359196.68,29282,20.5,73912.8,17.37,-29.61,-29.51,0,*4F
1497359197.9,29283,20.5,73912.5,17.31,-30.11,-30.11,0,*4B
1497359199.16,29284,20.5,73910.5,17.31,-26.61,-26.71,0,*4D
1497359200.41,29285,20.5,73912.0,17.27,-25.29,-24.97,0,*4E
1497359201.64,29286,20.5,73912.5,17.29,-24.57,-24.25,0,*42
1497359202.87,29287,20.5,73912.8,17.27,-26.07,-26.07,0,*48
1497359204.12,29288,20.5,73912.5,17.27,-27.13,-26.81,0,*4D
1497359205.38,29289,20.5,73912.0,17.27,-26.77,-26.65,0,*45
1497359206.61,29290,20.5,73910.3,17.27,-26.45,-25.91,0,*44
1497359207.83,29291,20.5,73906.5,17.29,-25.19,-24.67,0,*49
1497359209.05,29292,20.5,73904.8,17.27,-25.09,-24.35,0,*42
1497359210.28,29293,20.5,73900.8,17.29,-25.61,-25.03,0,*47
1497359211.51,29294,20.5,73898.5,17.27,-25.49,-24.93,0,*4C
1497359212.74,29295,20.5,73898.5,17.29,-25.55,-24.93,0,*4E
1497359214.0,29296,20.5,73892.8,17.29,-25.03,-24.25,0,*43
1497359215.25,29297,20.5,73890.5,17.29,-24.11,-23.33,0,*40
1497359216.48,29298,20.5,73888.8,17.33,-24.35,-23.69,0,*4D
1497359217.73,29299,20.5,73886.8,17.31,-25.91,-25.45,0,*49
1497359218.96,29300,20.5,73884.5,17.31,-25.91,-25.23,0,*48
1497359220.24,29301,20.5,73886.3,17.31,-27.39,-26.77,0,*4B
1497359221.45,29302,20.5,73884.0,17.29,-31.01,-30.67,0,*4B
1497359222.68,29303,20.5,73884.3,17.23,-30.83,-30.45,0,*4B
1497359223.88,29304,20.5,73890.3,17.17,-32.23,-31.79,0,*4D
1497359225.11,29305,20.5,73890.5,17.13,-32.69,-31.85,0,*45
1497359226.34,29306,20.5,73894.3,17.09,-31.91,-31.33,0,*44
1497359227.59,29307,20.5,73894.3,17.05,-29.79,-29.01,0,*4E
1497359228.87,29308,20.5,73892.0,17.05,-28.47,-27.99,0,*42
1497359230.09,29309,20.5,73890.8,17.01,-28.85,-28.53,0,*40
1497359231.33,29310,20.5,73890.8,16.99,-28.79,-28.53,0,*4B
1497359232.54,29311,20.5,73894.5,16.95,-27.93,-27.67,0,*45
1497359233.74,29312,20.5,73892.0,16.95,-27.77,-27.67,0,*4C
1497359234.95,29313,20.5,73892.8,16.91,-27.71,-27.71,0,*48
1497359236.15,29314,20.5,73898.3,16.91,-28.69,-29.23,0,*40
1497359237.39,29315,20.5,73900.3,16.89,-29.83,-30.33,0,*44
1497359238.65,29316,20.5,73902.3,16.87,-27.45,-28.09,0,*4D
1497359239.89,29317,20.5,73900.8,16.83,-27.13,-28.05,0,*47
1497359241.09,29318,20.5,73906.3,16.83,-25.61,-26.61,0,*43
1497359242.33,29319,20.5,73902.3,16.83,-23.99,-25.19,0,*4F
1497359243.61,29320,20.5,73902.3,16.85,-24.15,-25.75,0,*4A
1497359244.86,29321,20.5,73900.3,16.85,-24.97,-26.81,0,*49
1497359246.1,29322,20.5,73900.5,16.83,-23.53,-25.49,0,*44
1497359247.33,29323,20.5,73904.3,16.85,-23.39,-25.49,0,*4F
1497359248.56,29324,20.5,73904.0,16.85,-24.05,-26.45,0,*4F
1497359249.82,29325,20.5,73900.5,16.87,-23.03,-25.29,0,*44
1497359251.05,29326,20.5,73906.3,16.87,-23.69,-26.07,0,*44
1497359252.28,29327,20.5,73904.0,16.87,-22.47,-24.93,0,*47
1497359253.56,29328,20.56,73908.8,16.85,-21.67,-23.99,0,*46
1497359254.79,29329,20.5,73900.8,16.89,-22.37,-24.77,0,*4A
1497359256.04,29330,20.5,73904.3,16.89,-21.63,-23.95,0,*4B
1497359257.3,29331,20.5,73906.5,16.91,-22.47,-24.87,0,*42
1497359258.55,29332,20.5,73906.5,16.93,-21.17,-23.33,0,*4D
1497359259.8,29333,20.5,73906.8,16.97,-20.19,-22.37,0,*42
1497359261.03,29334,20.5,73904.5,16.97,-20.43,-22.41,0,*4B
1497359262.24,29335,20.5,73904.8,16.99,-22.67,-24.93,0,*49
1497359263.47,29336,20.5,73904.3,16.99,-22.83,-24.71,0,*4C
1497359264.69,29337,20.5,73900.5,17.01,-21.93,-23.59,0,*42
1497359265.97,29338,20.5,73904.0,17.01,-21.33,-23.03,0,*48
1497359267.2,29339,20.56,73904.0,17.07,-22.27,-23.85,0,*47
1497359268.45,29340,20.5,73900.0,17.07,-22.17,-23.65,0,*44
1497359269.67,29341,20.5,73898.3,17.07,-22.37,-23.69,0,*4B
1497359270.93,29342,20.5,73900.0,17.11,-21.57,-22.67,0,*45
1497359272.17,29343,20.5,73902.3,17.09,-22.17,-23.43,0,*4D
1497359273.4,29344,20.5,73902.3,17.11,-22.53,-23.75,0,*46
1497359274.68,29345,20.5,73900.0,17.15,-22.73,-23.99,0,*43
1497359275.92,29346,20.5,73902.0,17.13,-24.35,-25.71,0,*42
1497359277.13,29347,20.5,73902.0,17.13,-24.97,-26.39,0,*44
1497359278.36,29348,20.5,73902.3,17.13,-23.89,-25.03,0,*49
1497359279.59,29349,20.5,73900.3,17.11,-24.61,-25.87,0,*47
1497359280.85,29350,20.5,73904.0,17.09,-26.33,-27.39,0,*44
1497359282.05,29351,20.5,73900.5,17.09,-26.61,-27.93,0,*42
1497359283.31,29352,20.5,73902.3,17.05,-25.81,-27.03,0,*49
1497359284.53,29353,20.5,73900.5,17.05,-25.87,-27.13,0,*4F
1497359285.75,29354,20.5,73904.5,17.05,-25.35,-26.49,0,*4F
1497359287.03,29355,20.5,73904.0,17.05,-24.67,-26.13,0,*47
1497359288.28,29356,20.56,73908.0,16.99,-24.71,-26.39,0,*4F
1497359289.49,29357,20.5,73908.3,16.99,-24.05,-26.03,0,*44
1497359290.76,29358,20.5,73908.5,16.99,-23.65,-25.71,0,*4C
1497359292.0,29359,20.5,73908.8,17.01,-24.87,-27.13,0,*40
1497359293.27,29360,20.5,73908.0,16.99,-24.41,-26.33,0,*43
1497359294.48,29361,20.5,73908.8,16.99,-24.77,-27.03,0,*45
1497359295.72,29362,20.5,73914.3,16.99,-24.31,-26.33,0,*46
1497359296.96,29363,20.5,73914.5,16.99,-22.77,-24.57,0,*43
1497359298.2,29364,20.5,73912.0,16.99,-22.77,-24.77,0,*46
1497359299.4,29365,20.56,73916.5,16.99,-22.67,-24.61,0,*41
1497359300.63,29366,20.5,73912.3,17.01,-24.35,-26.45,0,*47
1497359301.88,29367,20.5,73908.3,17.01,-23.53,-25.19,0,*4B